ONEWEB-0677, 56713

Orbit data source: Space-Track

ONEWEB-0677, 56713 is a payload satellite owned by One Web (NAA) (UK) in LEO that was launched on Sat, 20 May 2023 UTC via an FALCON 9 launch vehicle from the Air Force Western Test Range (AFWTR). Payloads include a variety of satellites, spacecraft, and rockets equipped with specific instruments for various scientific and technological missions. These include communications satellites like Starlink; space stations such as the ISS; scientific satellites like the Hubble; Earth observation satellites from companies like Planet Labs, Umbra, and HawkEye 360; GPS; miniature CubeSats for education and research; and military/defense satellites.

Loading next visibility...
ONEWEB-0677 details
Identifier
56713, 2023-068D
Orbit
LEO
Last TLE update14 hours ago
Origin
Flag of UKOne Web (NAA) (UK)
ManufacturerOne Web
MissionOperational Commercial Communications
Bus & MotorARROW, Unknown motor
Mass148 kg wet, ~140 kg dry
Launch date (UTC)
2023-05-20 (2 years ago)
Launch vehicle
FALCON 9
Launch site
Air Force Western Test Range (AFWTR)
Object type
Payload
Rocket body
Debris
Shape & HBRTrap Box + 2 Pan, 5 m
Radar Cross Section2.032 m², Large (>1 m²)

Expand to show TLE details & history

TLE from 14 hours ago
0 ONEWEB-0677
1 56713U 23068D   25015.08602249 -.00000017  00000-0 -73751-4 0  9992
2 56713  87.9238  17.5317 0001801  79.8204 280.3133 13.20774980 82118
Epoch: 2025-01-15T02:03Z
Definitive object data (Epoch: 2025-01-15T02:03:52.343Z)
Latitude0.00006°
Longitude-128.21981°
Altitude1,184.421 km
Speed7.261 km/s
True Right ascension01h 10m 07s
True Declination0° 00' 00"
Sunlit
Object was in daylight at TLE epoch
Visualization TLE readout
Latitude9.01519°
Longitude51.33973°
Altitude1,184.012 km
Speed7.262 km/s
Apparent Right ascension10h 24m 27s
Apparent Declination-27° 32' 27"
Sunlit
Object is in daylight
Visualization observer readout
Local Sidereal Time16:20:08
Azimuth247.601° W
Elevation-16.491°
Doppler factor1
Orbital elements
Apogee altitude1,180.226 km
Perigee altitude1,177.504 km
Semi-major axis7,557.002 km
Eccentricity0.0001801
Inclination87.9238°
RAAN17.5317°
Arg. of periapsis79.8204°
True anomaly280.29299°
Mean anomaly280.3133°
Eccentric anomaly280.30315°
Mean motion3.30384 °/min
BSTAR-0.000073751
Orbital period108.96 mins
Loading maneuver chart data...
Loading historical data...
Loading historical data...
Loading historical data...
Loading historical data...
Loading historical data...
Loading historical data...
Loading historical data...

ONEWEB-0677 Visibility forecast

Observer location: undefined°, undefined

Span
Click to sort rows by Start time (UTC) header in descending order
Start Az.
Max El. time (UTC)
Max El. Az.
Max El.
End time (UTC)
End Az.
13 mins2025-01-15 23:58:14.702Z160.751° S2025-01-16 00:05:14.702Z79.866° E40.085°2025-01-16 00:11:14.702Z10.486° NNE
10 mins2025-01-16 01:50:14.702Z238.235° WSW2025-01-16 01:54:14.702Z278.226° WNW22.525°2025-01-16 02:00:14.702Z335.234° NNW
12 mins2025-01-16 11:24:14.702Z18.159° NNE2025-01-16 11:29:14.702Z73.194° E33.514°2025-01-16 11:36:14.702Z151.551° SSE
10 mins2025-01-16 13:14:14.702Z331.79° NNW2025-01-16 13:18:14.702Z286.621° WNW28.932°2025-01-16 13:24:14.702Z222.254° SW
|